This is the latest recevied weather packets stored in our database for station/object KGRR-WX. If no packets are shown the sender has not sent any weather packets the latest 10 day(s).
| Time | Temp. | Humidity | Pressure | Rain* | Wind** | Luminosity | Snow |
|---|---|---|---|---|---|---|---|
| 1777400104 | 11.11° C | 80% | 983.1 hPa | 0 mm | - | - | - |
| 1777399224 | 11.11° C | 80% | 983.1 hPa | 0 mm | - | - | - |
| 1777398304 | 11.11° C | 80% | 982.7 hPa | 0 mm | - | - | - |
| 1777397420 | 10.56° C | 82% | 982.9 hPa | 0 mm | - | - | - |
| 1777396504 | 10.56° C | 82% | 982.9 hPa | 0 mm | - | - | - |
| 1777395618 | 11.11° C | 82% | 982.9 hPa | 0 mm | - | - | - |
| 1777394704 | 11.11° C | 82% | 982.3 hPa | 0 mm | - | - | - |
| 1777393815 | 11.11° C | 84% | 981.7 hPa | 0 mm | - | - | - |
| 1777392905 | 11.11° C | 84% | 981.7 hPa | 0 mm | - | - | - |
| 1777392024 | 11.11° C | 84% | 981.7 hPa | 0 mm | - | - | - |
| 1777391104 | 10.56° C | 84% | 980.7 hPa | 0 mm | - | - | - |
| 1777390221 | 10.56° C | 87% | 981.4 hPa | 0 mm | - | - | - |
| 1777389304 | 10.56° C | 87% | 981.4 hPa | 0 mm | - | - | - |
| 1777388424 | 11.11° C | 87% | 981.4 hPa | 0 mm | - | - | - |
| 1777387505 | 11.67° C | 85% | 979.1 hPa | 0 mm | - | - | - |
| 1777386621 | 10.56° C | 84% | 980 hPa | 0 mm | - | - | - |
| 1777385704 | 10.56° C | 84% | 980 hPa | 0 mm | - | - | - |
| 1777384823 | 11.11° C | 84% | 980 hPa | 0 mm | - | - | - |
| 1777383904 | 11.11° C | 88% | 978.7 hPa | 0 mm | - | - | - |
| 1777383021 | 11.67° C | 88% | 978.7 hPa | 0 mm | - | - | - |
| 1777382104 | 10.56° C | 88% | 978.6 hPa | 0 mm | - | - | - |
| 1777381223 | 10° C | 88% | 978.6 hPa | 0 mm | - | - | - |
| 1777380305 | 10° C | 86% | 978 hPa | 0 mm | - | - | - |
| 1777379420 | 10.56° C | 86% | 978 hPa | 0 mm | - | - | - |
| 1777378504 | 10.56° C | 86% | 978 hPa | 0 mm | - | - | - |
* Rain latest hour (hover to see other rain measurements)
** Current wind speed in m/s (hover to see current wind gust speed)